Weather History for KGRD - September, 2013

Change the Weather History Date:

Friday, September 27, 2013

  Actual Average (KAND) Record (KAND)
Temperature  
Mean Temperature 66 °F -  
Max Temperature 78 °F 78 °F 94 °F (1954)
Min Temperature 54 °F 59 °F 44 °F (2000)
Cooling Degree Days 1    
Growing Degree Days 16 (Base 50)    
Moisture  
Dew Point 55 °F    
Average Humidity 72    
Maximum Humidity 93    
Minimum Humidity 45    
Precipitation  
Precipitation 0.01 in - - ()
Sea Level Pressure  
Sea Level Pressure 30.11 in    
Wind  
Wind Speed 5 mph (NNE)    
Max Wind Speed 12 mph    
Max Gust Speed 20 mph    
Visibility 10 miles    
Events      
Averages and records for this station are not official NWS values.
T = Trace of Precipitation, MM = Missing Value Source: NWS Daily Summary

Daily Weather History Graph

Daily Weather History Graph

Search for Another Location

Airport or City:

Trip Planner

Search our weather history database for the weather conditions in past years. The results will help you decide how hot, cold, wet, or windy it might be!

Date:

Astronomy

Sep. 27, 2013 Rise Set
Actual Time 7:20 AM EDT 7:18 PM EDT
Civil Twilight 6:55 AM EDT 7:43 PM EDT
Nautical Twilight 6:26 AM EDT 8:12 PM EDT
Astronomical Twilight 5:56 AM EDT 8:41 PM EDT
Moon 12:29 AM EDT (9/27) 2:41 PM EDT (9/27)
Length of Visible Light 12h 47m
Length of Day
11h 57m
Last Quarter, 45% of the Moon is Illuminated
Sep 27
Last Quarter
Oct 4
New
Oct 11
First Quarter
Oct 18
Full
Oct 26
Last Quarter

Hourly Weather History & Observations

Time (EDT) Temp. Dew Point Humidity Pressure Visibility Wind Dir Wind Speed Gust Speed Precip Events Conditions
12:56 AM 57.9 °F 55.0 °F 90% 30.04 in 10.0 mi Calm Calm - N/A   Clear
1:56 AM 55.9 °F 54.0 °F 93% 30.04 in 9.0 mi North 3.5 mph - N/A   Clear
2:56 AM 55.9 °F 53.1 °F 90% 30.04 in 10.0 mi NNW 4.6 mph - N/A   Clear
3:56 AM 55.9 °F 53.1 °F 90% 30.04 in 10.0 mi North 4.6 mph - N/A   Clear
4:56 AM 54.0 °F 52.0 °F 93% 30.06 in 10.0 mi North 5.8 mph - 0.01 in   Clear
5:56 AM 55.0 °F 52.0 °F 89% 30.07 in 10.0 mi North 4.6 mph - N/A   Clear
6:56 AM 54.0 °F 51.1 °F 90% 30.09 in 10.0 mi North 4.6 mph - N/A   Clear
7:56 AM 55.9 °F 53.1 °F 90% 30.12 in 10.0 mi North 5.8 mph - N/A   Clear
8:56 AM 61.0 °F 55.0 °F 81% 30.14 in 10.0 mi North 4.6 mph - N/A   Clear
9:56 AM 66.0 °F 57.0 °F 73% 30.15 in 10.0 mi NNE 8.1 mph - N/A   Clear
10:56 AM 70.0 °F 57.0 °F 63% 30.17 in 10.0 mi NNE 9.2 mph - N/A   Clear
11:56 AM 72.0 °F 54.0 °F 53% 30.16 in 10.0 mi ENE 9.2 mph 19.6 mph N/A   Clear
12:56 PM 75.0 °F 54.0 °F 48% 30.14 in 10.0 mi NNE 11.5 mph 16.1 mph N/A   Clear
1:56 PM 77.0 °F 54.0 °F 45% 30.12 in 10.0 mi NNE 11.5 mph - N/A   Clear
2:56 PM 77.0 °F 54.0 °F 45% 30.10 in 10.0 mi ENE 9.2 mph - N/A   Clear
3:56 PM 78.1 °F 55.0 °F 45% 30.09 in 10.0 mi NE 10.4 mph 16.1 mph N/A   Clear
4:56 PM 77.0 °F 55.0 °F 47% 30.09 in 10.0 mi NE 9.2 mph - N/A   Clear
5:56 PM 75.9 °F 55.0 °F 48% 30.09 in 10.0 mi NNE 8.1 mph - N/A   Clear
6:56 PM 72.0 °F 57.0 °F 59% 30.10 in 10.0 mi Calm Calm - N/A   Clear
7:56 PM 64.0 °F 57.9 °F 80% 30.11 in 10.0 mi Calm Calm - N/A   Clear
8:56 PM 63.0 °F 57.0 °F 81% 30.13 in 10.0 mi Calm Calm - N/A   Clear
9:56 PM 63.0 °F 55.9 °F 78% 30.15 in 10.0 mi ENE 3.5 mph - N/A   Clear
10:56 PM 63.0 °F 55.0 °F 75% 30.16 in 10.0 mi Calm Calm - N/A   Clear
11:56 PM 62.1 °F 54.0 °F 75% 30.17 in 10.0 mi NE 3.5 mph - N/A   Clear